Fairfield, IA

1:57 PM CDT on May 20, 2018 (GMT -0500)
Fairfield Municipal

Weather History for KFFL - January, 2013

Change the Weather History Date:

Sunday, January 20, 2013

  Actual Average Record
Temperature  
Mean Temperature 14 °F -  
Max Temperature 21 °F 32 °F 50 °F (1997)
Min Temperature 8 °F 13 °F -21 °F (1985)
Degree Days  
Heating Degree Days 50    
Moisture  
Dew Point 7 °F    
Average Humidity 73    
Maximum Humidity 85    
Minimum Humidity 58    
Precipitation  
Precipitation 0.00 in - - ()
Sea Level Pressure  
Sea Level Pressure 30.33 in    
Wind  
Wind Speed 13 mph (NW)    
Max Wind Speed 23 mph    
Max Gust Speed 31 mph    
Visibility 8 miles    
Events Snow    
Averages and records for this station are not official NWS values.
T = Trace of Precipitation, MM = Missing Value Source: NWS Daily Summary

Daily Weather History Graph

Daily Weather History Graph

Search for Another Location

Airport or City:

Astronomy

Jan. 20, 2013 Rise Set
Actual Time 7:28 AM CST 5:10 PM CST
Civil Twilight 6:58 AM CST 5:40 PM CST
Nautical Twilight 6:24 AM CST 6:14 PM CST
Astronomical Twilight 5:51 AM CST 6:46 PM CST
Moon 12:12 PM CST 2:00 AM CST
Length of Visible Light 10h 42m
Length of Day
9h 42m
Waxing Gibbous, 66% of the Moon is Illuminated
Jan 20
Waxing Gibbous
Jan 26
Full
Feb 3
Last Quarter
Feb 10
New
Feb 17
First Quarter

Hourly Weather History & Observations

Time (CST) Temp. Windchill Dew Point Humidity Pressure Visibility Wind Dir Wind Speed Gust Speed Precip Events Conditions
12:15 AM 21.2 °F 4.9 °F 10.4 °F 63% 30.24 in 10.0 mi WNW 23.0 mph 31.1 mph N/A   Clear
12:35 AM 19.4 °F 4.5 °F 10.4 °F 68% 30.24 in 10.0 mi WNW 17.3 mph 25.3 mph N/A   Clear
12:55 AM 19.4 °F 5.5 °F 8.6 °F 63% 30.25 in 10.0 mi WNW 15.0 mph - N/A   Clear
1:15 AM 17.6 °F 5.7 °F 6.8 °F 63% 30.25 in 10.0 mi NW 10.4 mph - N/A   Clear
1:35 AM 17.6 °F 3.2 °F 6.8 °F 63% 30.26 in 10.0 mi WNW 15.0 mph - N/A   Clear
1:55 AM 17.6 °F 2.7 °F 6.8 °F 63% 30.29 in 10.0 mi NW 16.1 mph 24.2 mph N/A   Clear
2:15 AM 17.6 °F 3.7 °F 6.8 °F 63% 30.29 in 10.0 mi NW 13.8 mph 21.9 mph N/A   Clear
2:35 AM 15.8 °F -1.9 °F 6.8 °F 68% 30.30 in 10.0 mi WNW 21.9 mph - N/A   Clear
2:55 AM 15.8 °F 0.9 °F 5.0 °F 62% 30.31 in 10.0 mi NW 15.0 mph 21.9 mph N/A   Clear
3:15 AM 15.8 °F 0.3 °F 6.8 °F 68% 30.32 in 10.0 mi NW 16.1 mph - N/A   Clear
3:35 AM 15.8 °F 1.4 °F 6.8 °F 68% 30.31 in 10.0 mi NW 13.8 mph 19.6 mph N/A   Clear
3:55 AM 15.8 °F 2.1 °F 6.8 °F 68% 30.31 in 10.0 mi NW 12.7 mph - N/A   Clear
4:15 AM 15.8 °F -0.6 °F 6.8 °F 68% 30.30 in 10.0 mi NW 18.4 mph 24.2 mph N/A   Clear
4:35 AM 14.0 °F -2.0 °F 6.8 °F 73% 30.31 in 10.0 mi NW 16.1 mph - N/A   Clear
4:55 AM 14.0 °F 1.2 °F 6.8 °F 73% 30.32 in 10.0 mi NW 10.4 mph - N/A   Clear
5:15 AM 14.0 °F 5.1 °F 6.8 °F 73% 30.31 in 10.0 mi NW 5.8 mph - N/A   Clear
5:35 AM 12.2 °F 0.7 °F 6.8 °F 79% 30.32 in 10.0 mi NNW 8.1 mph - N/A   Clear
5:55 AM 12.2 °F -1.0 °F 5.0 °F 73% 30.32 in 10.0 mi NNW 10.4 mph - N/A   Clear
6:15 AM 12.2 °F -2.5 °F 5.0 °F 73% 30.32 in 10.0 mi NNW 12.7 mph - N/A   Clear
6:35 AM 12.2 °F -1.8 °F 5.0 °F 73% 30.33 in 10.0 mi NW 11.5 mph - N/A   Clear
6:55 AM 12.2 °F -1.8 °F 3.2 °F 67% 30.34 in 10.0 mi NW 11.5 mph - N/A   Clear
7:15 AM 12.2 °F -1.8 °F 3.2 °F 67% 30.34 in 10.0 mi NW 11.5 mph - N/A   Clear
7:35 AM 12.2 °F -2.5 °F 3.2 °F 67% 30.33 in 10.0 mi NNW 12.7 mph - N/A   Clear
7:55 AM 12.2 °F -1.8 °F 3.2 °F 67% 30.32 in 10.0 mi North 11.5 mph - N/A   Clear
8:15 AM 12.2 °F -0.2 °F 3.2 °F 67% 30.35 in 10.0 mi NNW 9.2 mph - N/A   Scattered Clouds
8:35 AM 12.2 °F 0.7 °F 3.2 °F 67% 30.35 in 10.0 mi NNW 8.1 mph - N/A   Mostly Cloudy
8:55 AM 12.2 °F -0.2 °F 3.2 °F 67% 30.36 in 10.0 mi NW 9.2 mph - N/A   Overcast
9:15 AM 12.2 °F -1.0 °F 5.0 °F 73% 30.36 in 10.0 mi NW 10.4 mph - N/A   Mostly Cloudy
9:35 AM 14.0 °F 2.9 °F 5.0 °F 67% 30.38 in 10.0 mi NW 8.1 mph - N/A   Mostly Cloudy
9:55 AM 14.0 °F 2.9 °F 5.0 °F 67% 30.38 in 10.0 mi NW 8.1 mph - N/A   Mostly Cloudy
10:15 AM 15.8 °F 4.2 °F 5.0 °F 62% 30.38 in 10.0 mi NNW 9.2 mph - N/A   Mostly Cloudy
10:35 AM 15.8 °F 6.1 °F 5.0 °F 62% 30.39 in 10.0 mi North 6.9 mph - N/A   Mostly Cloudy
10:55 AM 15.8 °F 5.1 °F 5.0 °F 62% 30.39 in 10.0 mi NNW 8.1 mph - N/A   Scattered Clouds
11:15 AM 17.6 °F 5.7 °F 5.0 °F 58% 30.38 in 10.0 mi NNW 10.4 mph - N/A   Scattered Clouds
11:35 AM 17.6 °F 5.7 °F 5.0 °F 58% 30.37 in 10.0 mi NW 10.4 mph - N/A   Mostly Cloudy
12:15 PM 15.8 °F 7.2 °F 6.8 °F 68% 30.36 in 3.0 mi NNW 5.8 mph - N/A Snow Light Snow
12:35 PM 15.8 °F 6.1 °F 8.6 °F 73% 30.35 in 2.5 mi NNW 6.9 mph - N/A Snow Light Snow
12:55 PM 15.8 °F 6.1 °F 10.4 °F 79% 30.36 in 1.0 mi NW 6.9 mph - N/A Snow Light Snow
1:15 PM 15.8 °F 5.1 °F 10.4 °F 79% 30.36 in 1.0 mi NW 8.1 mph - N/A Snow Light Snow
1:35 PM 15.8 °F 4.2 °F 10.4 °F 79% 30.36 in 1.0 mi NW 9.2 mph - N/A Snow Light Snow
1:55 PM 15.8 °F 5.1 °F 10.4 °F 79% 30.36 in 1.5 mi NW 8.1 mph - N/A Snow Light Snow
2:15 PM 15.8 °F 3.4 °F 10.4 °F 79% 30.35 in 1.2 mi NW 10.4 mph - N/A Snow Light Snow
2:35 PM 15.8 °F 2.7 °F 10.4 °F 79% 30.36 in 1.0 mi NW 11.5 mph 16.1 mph N/A Snow Light Snow
2:55 PM 15.8 °F 3.4 °F 10.4 °F 79% 30.36 in 1.5 mi NW 10.4 mph - N/A Snow Light Snow
3:15 PM 15.8 °F 4.2 °F 10.4 °F 79% 30.35 in 1.2 mi NW 9.2 mph - N/A Snow Light Snow
3:35 PM 15.8 °F 3.4 °F 10.4 °F 79% 30.35 in 2.5 mi WNW 10.4 mph - N/A Snow Light Snow
3:55 PM 15.8 °F 4.2 °F 10.4 °F 79% 30.35 in 2.5 mi NW 9.2 mph - N/A Snow Light Snow
4:15 PM 15.8 °F 3.4 °F 10.4 °F 79% 30.35 in 3.0 mi NW 10.4 mph - N/A Snow Light Snow
4:35 PM 15.8 °F 3.4 °F 10.4 °F 79% 30.35 in 4.0 mi NW 10.4 mph - N/A Snow Light Snow
4:55 PM 15.8 °F 3.4 °F 10.4 °F 79% 30.35 in 5.0 mi NW 10.4 mph - N/A Snow Light Snow
5:15 PM 14.0 °F 1.2 °F 8.6 °F 79% 30.34 in 10.0 mi WNW 10.4 mph - N/A Snow Light Snow
5:35 PM 14.0 °F 2.0 °F 8.6 °F 79% 30.35 in 10.0 mi WNW 9.2 mph - N/A   Overcast
5:55 PM 14.0 °F 1.2 °F 8.6 °F 79% 30.35 in 10.0 mi WNW 10.4 mph - N/A Snow Light Snow
6:15 PM 14.0 °F 1.2 °F 8.6 °F 79% 30.35 in 10.0 mi WNW 10.4 mph - N/A   Overcast
6:35 PM 12.2 °F 0.7 °F 8.6 °F 85% 30.34 in 10.0 mi WNW 8.1 mph - N/A   Overcast
6:55 PM 12.2 °F -0.2 °F 8.6 °F 85% 30.35 in 10.0 mi West 9.2 mph - N/A   Overcast
7:15 PM 12.2 °F -1.0 °F 8.6 °F 85% 30.35 in 10.0 mi WNW 10.4 mph - N/A   Overcast
7:35 PM 12.2 °F 0.7 °F 6.8 °F 79% 30.35 in 10.0 mi West 8.1 mph - N/A   Overcast
7:55 PM 12.2 °F -0.2 °F 6.8 °F 79% 30.35 in 10.0 mi West 9.2 mph - N/A   Overcast
8:15 PM 12.2 °F -0.2 °F 6.8 °F 79% 30.35 in 10.0 mi WNW 9.2 mph - N/A   Overcast
8:35 PM 12.2 °F 0.7 °F 6.8 °F 79% 30.34 in 10.0 mi WNW 8.1 mph - N/A   Overcast
8:55 PM 12.2 °F -0.2 °F 6.8 °F 79% 30.34 in 10.0 mi West 9.2 mph - N/A   Overcast
9:15 PM 12.2 °F -0.2 °F 6.8 °F 79% 30.33 in 10.0 mi WNW 9.2 mph - N/A   Mostly Cloudy
9:35 PM 10.4 °F -2.4 °F 5.0 °F 79% 30.33 in 10.0 mi WNW 9.2 mph - N/A   Scattered Clouds
9:55 PM 10.4 °F -1.5 °F 5.0 °F 79% 30.32 in 10.0 mi WNW 8.1 mph - N/A   Clear
10:15 PM 8.6 °F -4.7 °F 3.2 °F 79% 30.33 in 10.0 mi West 9.2 mph - N/A   Clear
10:35 PM 8.6 °F -5.5 °F 3.2 °F 79% 30.33 in 10.0 mi WNW 10.4 mph - N/A   Clear
10:55 PM 8.6 °F -5.5 °F 3.2 °F 79% 30.33 in 10.0 mi West 10.4 mph - N/A   Clear
11:15 PM 8.6 °F -5.5 °F 3.2 °F 79% 30.34 in 10.0 mi WNW 10.4 mph - N/A   Mostly Cloudy
11:35 PM 8.6 °F -3.7 °F 3.2 °F 79% 30.32 in 10.0 mi West 8.1 mph - N/A Snow Light Snow
11:55 PM 8.6 °F -7.0 °F 3.2 °F 79% 30.33 in 10.0 mi West 12.7 mph - N/A   Mostly Cloudy